Theta_e
321 320 319 320 321 322 323 323 323 323 323 323 323 324 324 323 323 324 324 324 324 324 325 324 323 325 326 326 326 326 325 324 323 320 318 320 324 321 318 317 313 309 309 310 311 311 313 313 313 313 315 317 318 319 319 319 320 319 322 320 317 319 319 318 319 316 316 319 318 317 317 318 318 316 315 315 315 317 316 317 319 319 322 324 326 334 339 337
321 320 320 321 322 322 323 323 323 323 323 323 323 323 323 323 323 323 323 324 324 324 324 323 323 324 326 326 325 325 325 322 318 316 318 321 321 322 323 319 313 309 308 310 312 312 312 313 314 314 314 317 318 318 319 319 319 319 321 319 319 321 319 318 319 316 317 318 318 317 318 318 318 317 316 316 316 316 316 316 318 318 322 323 326 333 336 336
321 321 321 321 322 322 322 323 323 323 323 323 323 322 323 323 323 323 323 323 323 322 323 322 323 323 325 326 324 324 322 318 314 315 320 320 319 321 323 319 312 309 309 311 312 311 312 313 314 314 314 315 317 317 318 319 318 319 321 320 321 321 318 317 317 316 316 317 318 318 318 318 317 317 316 316 317 315 316 316 317 318 321 323 327 332 334 335
321 321 321 321 321 321 322 322 322 322 323 322 322 322 323 323 322 323 322 322 322 322 322 321 322 324 325 323 323 322 318 318 319 318 321 320 318 320 321 318 314 311 310 310 311 312 312 314 314 313 314 315 316 317 317 319 318 318 319 320 320 319 317 316 316 315 314 316 317 317 317 317 316 316 316 316 316 316 315 316 317 316 319 323 327 332 334 335
321 321 321 320 320 321 321 321 321 321 322 322 322 322 322 322 322 322 322 322 321 321 319 319 322 323 322 321 321 318 318 325 325 320 321 320 319 320 319 317 315 313 311 311 312 312 312 313 313 312 314 315 316 316 316 317 318 318 317 318 318 318 318 315 314 314 313 315 316 317 317 316 316 315 316 315 316 316 315 316 316 315 319 324 327 333 335 335
321 320 320 320 319 320 320 321 320 319 320 322 322 321 321 321 321 321 321 321 321 320 317 317 319 319 319 319 318 315 319 328 321 316 321 319 320 320 318 317 315 312 311 312 313 312 312 312 312 313 314 315 315 315 316 316 316 318 317 316 316 316 317 314 313 312 312 315 316 317 316 316 315 315 316 316 316 315 314 315 313 315 322 326 329 333 334 335
320 320 319 318 318 319 319 319 319 318 319 321 321 321 321 321 321 320 321 321 320 320 318 316 316 316 315 313 314 314 319 322 314 314 319 318 320 319 318 317 314 311 312 313 312 311 312 312 311 313 314 314 315 315 315 316 315 317 317 316 315 315 315 313 312 311 311 315 315 316 315 315 315 315 315 315 316 314 313 315 314 316 324 327 329 332 333 335
320 319 319 318 318 319 318 318 318 318 318 320 321 320 320 320 320 320 320 320 320 320 319 316 316 314 310 310 313 314 316 317 314 314 317 317 319 319 318 316 314 312 313 313 312 311 311 311 311 313 314 314 315 315 315 316 315 317 317 315 314 313 313 311 311 311 311 313 313 314 315 315 315 314 314 315 316 315 314 316 317 319 322 325 327 329 332 334
320 319 318 317 318 318 317 317 317 317 318 320 321 319 320 320 320 319 319 320 319 320 319 317 317 314 310 312 314 315 316 316 314 313 315 316 317 317 316 314 313 314 313 312 312 312 311 311 311 313 314 313 314 315 315 316 315 316 316 315 314 313 312 311 312 312 312 312 312 314 315 315 313 312 314 316 315 314 313 315 318 319 319 322 325 327 330 333
319 318 317 317 318 317 317 317 318 318 319 320 320 319 319 319 319 319 319 319 319 320 318 317 316 311 312 315 313 316 318 315 315 312 313 315 314 314 313 312 312 313 313 312 312 312 311 311 312 313 313 313 314 314 315 315 315 316 315 314 313 313 312 312 313 312 312 313 312 315 316 313 312 312 315 315 313 312 312 315 318 318 317 320 323 326 330 332
318 317 316 317 318 318 318 319 319 319 319 319 319 318 318 318 318 318 318 318 318 319 318 317 313 309 314 315 312 315 316 313 313 312 312 314 312 312 312 311 311 313 313 312 312 311 311 312 313 313 312 312 313 313 314 313 314 315 314 314 313 313 313 312 313 312 313 313 312 314 315 313 312 313 315 314 311 312 313 315 318 318 318 319 321 325 330 332
317 317 317 317 318 318 319 320 319 319 318 318 318 318 318 318 317 317 318 317 318 318 318 317 312 311 314 312 311 313 313 313 312 311 312 312 312 312 312 311 312 313 313 312 312 311 311 312 313 313 311 312 313 313 313 312 314 315 315 315 313 314 314 313 313 312 313 314 312 313 314 314 314 314 315 312 310 313 314 315 317 317 318 320 322 325 328 331
318 317 317 317 318 318 318 319 318 318 317 317 317 317 317 317 317 317 317 317 317 317 317 316 313 315 314 309 310 311 312 314 312 311 312 311 312 312 311 312 312 312 312 312 312 312 311 310 311 312 311 312 312 312 312 312 313 315 315 316 314 314 314 313 313 312 314 313 311 312 312 313 316 315 314 311 310 312 313 315 317 317 317 320 323 325 327 329
318 317 317 317 318 318 317 318 318 316 316 317 317 317 317 316 316 316 317 317 316 316 317 315 315 316 313 309 309 310 313 315 313 312 311 311 311 311 311 311 311 311 311 311 311 312 311 310 311 312 311 312 312 311 312 312 312 314 315 315 315 313 313 314 313 313 314 311 310 312 310 312 317 315 312 311 311 312 313 314 315 316 318 319 322 323 325 327
318 317 317 317 317 317 316 317 317 317 317 317 317 316 316 316 316 315 315 316 316 316 316 316 317 315 310 308 310 310 312 314 313 312 311 311 311 311 311 311 311 311 311 311 311 311 310 310 311 311 311 311 311 312 313 313 313 314 313 312 314 313 312 314 313 312 314 312 311 312 310 312 315 314 312 311 311 312 313 314 314 316 317 318 319 320 321 324
318 317 317 317 316 316 315 315 316 317 317 316 316 315 315 315 315 314 315 315 315 316 316 316 317 316 309 308 312 311 312 313 314 313 311 311 311 312 312 311 312 311 311 311 310 310 310 311 311 313 312 311 312 313 313 312 312 314 313 312 314 313 313 314 312 312 313 313 312 311 312 314 314 313 311 311 312 312 312 313 314 315 315 316 316 317 318 319
317 317 316 315 315 315 315 314 315 316 316 315 315 314 314 314 314 314 315 315 315 316 316 315 315 314 309 309 311 312 313 313 314 312 311 311 311 312 312 312 312 310 310 310 310 311 311 311 311 312 312 311 312 313 313 311 310 312 312 313 314 313 312 312 313 313 313 314 314 312 312 313 315 314 312 311 312 312 313 313 314 314 314 314 315 315 316 316
317 316 315 315 315 315 315 314 315 315 315 314 314 313 313 314 314 314 315 315 315 314 313 311 312 312 309 308 310 313 313 313 312 312 311 311 312 312 312 312 311 310 310 309 310 311 311 312 311 312 312 311 312 313 312 311 311 311 311 312 313 313 312 312 313 313 313 313 314 314 313 313 314 315 314 312 311 312 313 314 314 314 314 314 315 315 315 316
316 315 315 315 315 315 314 315 315 314 313 313 313 313 313 314 314 315 316 315 312 309 309 309 310 311 309 308 310 313 313 312 312 312 311 311 311 312 312 312 311 311 311 311 311 311 312 312 312 312 312 311 312 313 312 313 314 313 312 312 312 311 311 313 313 311 312 313 314 314 313 314 314 314 315 314 313 312 313 314 314 314 314 315 315 315 316 316
315 314 315 315 315 315 315 315 315 314 313 313 313 314 314 314 314 314 315 314 309 307 309 309 309 309 308 309 311 312 312 312 312 312 312 311 311 311 312 312 313 312 312 312 312 312 312 313 312 313 312 312 312 313 313 313 314 315 314 312 312 312 310 312 313 310 311 313 313 314 314 314 314 314 314 314 314 313 314 314 314 315 315 315 315 315 316 316
314 314 314 315 315 315 315 315 314 313 313 313 314 314 313 313 312 312 313 312 309 309 309 308 309 309 309 311 312 311 311 311 312 312 311 311 311 312 312 312 313 313 313 313 313 312 312 312 313 313 312 313 312 313 312 312 313 314 314 312 312 312 311 313 313 311 311 312 313 314 314 314 315 314 314 315 314 314 314 314 314 314 314 315 316 316 317 317
313 313 314 314 314 314 314 314 313 313 313 313 314 313 311 311 311 311 312 309 308 309 309 309 309 310 311 311 311 311 312 311 311 312 311 311 312 312 312 312 312 313 313 314 314 313 312 312 312 312 312 312 312 312 312 312 313 313 313 312 311 312 313 312 312 312 311 311 313 315 314 314 315 315 315 315 315 315 315 314 314 315 316 316 316 317 318 320
313 313 313 314 314 314 314 313 313 313 313 313 315 314 312 311 311 310 310 308 308 309 309 308 308 310 311 311 311 310 311 311 312 312 311 311 312 312 312 312 312 313 313 313 313 313 312 312 312 312 311 311 311 311 311 312 312 313 313 310 311 314 312 311 312 312 312 311 312 314 314 314 315 315 315 315 315 316 316 315 316 317 317 318 318 320 320 319
313 313 313 313 313 313 313 313 312 312 313 314 315 315 312 311 310 310 310 309 309 308 308 309 310 311 311 311 311 310 310 311 312 312 311 311 312 312 312 312 312 312 312 313 313 313 313 310 309 311 311 312 311 311 312 311 311 315 317 312 313 315 313 312 313 312 312 311 312 313 311 311 314 314 314 316 316 316 315 314 314 315 316 316 317 318 317 316
313 313 313 313 313 313 313 313 312 312 313 314 315 315 312 310 309 310 312 310 310 310 308 309 311 312 311 311 311 310 310 310 311 312 311 311 312 311 311 311 312 312 312 312 312 312 313 308 307 311 311 312 312 311 313 313 310 313 317 316 314 314 313 314 314 312 311 312 313 313 309 308 313 315 315 315 315 313 313 313 313 314 315 315 314 314 315 315
313 313 313 313 313 313 312 313 313 312 313 313 315 314 311 310 308 310 313 311 311 311 309 309 310 311 311 311 311 310 310 311 310 310 311 311 310 310 311 311 310 311 312 311 312 313 310 305 308 312 312 314 314 311 313 314 310 310 315 316 313 314 315 315 315 313 311 311 312 312 309 308 311 314 315 315 313 313 314 313 313 314 314 315 314 314 315 315
313 313 313 313 312 312 312 312 312 312 312 313 313 312 311 309 308 310 313 312 312 312 309 308 308 310 311 311 310 309 311 311 310 310 311 310 309 309 310 311 309 310 311 311 312 312 309 307 310 314 313 315 314 312 314 315 311 313 317 316 313 315 317 316 316 314 313 313 312 313 313 310 309 312 315 314 313 313 314 313 314 314 314 314 314 315 316 316
313 312 312 311 311 311 312 312 312 312 313 312 311 311 310 308 308 310 312 314 314 311 309 308 307 310 311 310 309 310 310 311 312 312 310 309 309 309 310 311 310 310 310 311 312 312 310 311 312 313 314 315 314 314 317 315 313 315 316 316 315 317 317 317 316 313 314 313 311 313 315 310 308 312 314 313 312 313 313 314 315 315 315 315 315 315 315 315
313 312 311 310 310 311 312 312 312 312 312 311 310 310 309 308 310 310 311 314 313 309 309 308 308 310 310 309 309 310 311 311 312 311 309 308 309 309 310 311 310 310 309 311 314 313 311 310 311 313 315 315 313 312 316 318 315 313 313 316 317 318 318 317 316 313 313 311 311 314 314 310 308 310 312 312 311 312 314 314 315 315 316 315 315 315 314 314
312 311 310 310 310 311 312 312 312 312 311 310 309 309 309 310 311 311 312 314 313 309 308 308 309 310 310 309 309 310 311 311 310 310 309 309 309 308 309 310 310 311 312 314 314 312 309 308 310 313 313 312 310 309 313 317 314 313 315 316 316 316 315 315 314 312 311 311 312 314 314 311 308 308 312 313 311 313 314 314 315 315 315 314 314 313 313 313
312 311 310 310 311 311 312 312 312 312 310 309 309 310 310 310 310 312 312 313 313 310 308 308 310 310 310 311 310 311 312 312 310 310 310 310 309 309 310 311 311 313 313 314 314 312 310 310 311 311 308 309 311 311 311 313 313 315 317 315 313 313 313 312 311 311 312 312 311 310 312 313 309 308 312 313 311 312 314 314 315 315 314 314 314 313 312 312
311 311 310 311 311 311 312 313 311 311 309 309 311 312 310 310 311 312 312 311 312 311 309 310 311 311 311 311 311 311 312 312 311 311 311 310 310 310 311 312 312 313 312 312 314 315 314 313 313 311 308 309 314 313 311 312 314 316 315 312 312 313 313 313 312 312 312 311 308 308 311 312 309 309 312 312 311 311 313 314 315 315 314 314 314 313 312 312
311 310 310 311 311 311 313 312 310 309 309 310 312 312 310 311 312 312 311 311 312 311 310 311 311 311 311 311 312 312 313 313 312 311 311 312 312 312 313 313 313 314 314 313 315 315 315 314 314 313 310 310 313 313 312 312 312 314 314 312 311 312 314 315 313 312 312 310 308 308 311 311 309 310 313 313 311 311 311 312 313 314 313 313 313 313 313 312
311 310 310 311 311 311 312 311 308 309 310 311 312 310 311 313 313 312 311 312 312 311 311 311 311 311 311 312 313 313 313 313 312 312 313 312 312 312 313 313 313 315 315 314 315 315 315 314 313 314 313 311 313 314 314 314 313 315 317 314 312 312 313 313 313 312 313 311 308 308 309 310 309 310 313 312 311 311 310 310 311 311 312 312 313 313 312 312
311 310 311 311 312 312 312 310 308 309 310 311 310 309 312 313 312 312 312 312 311 311 311 311 312 312 311 313 314 312 313 314 312 313 313 313 312 313 313 312 312 315 314 314 314 314 315 314 312 312 312 312 314 314 314 315 314 315 317 315 314 313 311 311 311 311 311 311 310 309 310 311 311 313 313 312 311 310 310 310 310 310 311 312 314 314 312 311
311 310 311 312 312 312 311 309 308 310 311 310 309 310 312 313 313 312 312 312 311 311 312 312 312 313 312 313 314 312 312 314 314 313 313 313 313 314 314 312 312 313 313 314 314 314 314 314 312 312 311 310 311 312 312 314 315 314 313 313 312 313 312 311 309 309 309 310 311 311 311 311 311 312 313 312 311 310 310 310 310 311 313 312 315 316 312 312
311 311 312 312 312 312 312 310 309 311 312 310 310 311 312 313 314 313 312 311 311 311 312 312 313 313 313 313 313 313 313 314 314 314 313 314 314 313 314 313 313 313 313 314 314 314 314 313 313 315 314 311 309 311 312 312 314 313 313 314 311 311 312 310 309 310 309 310 310 310 310 309 308 309 312 312 311 311 311 310 310 312 313 313 316 316 312 313
311 312 312 312 312 312 312 311 311 312 312 311 311 312 314 314 313 314 312 311 311 312 312 313 313 313 313 313 312 313 313 313 314 314 314 313 313 314 314 314 315 313 312 312 313 316 317 314 314 315 314 312 311 313 312 312 313 312 312 314 312 312 311 309 310 311 311 311 310 309 309 308 308 309 310 311 311 311 311 310 310 311 312 314 316 314 313 314
312 313 313 313 312 312 312 313 313 312 312 312 311 312 315 315 314 315 314 311 312 312 312 313 313 313 313 313 313 313 312 313 313 314 315 313 312 314 313 314 316 312 310 311 312 316 317 315 315 313 312 312 311 312 313 313 312 310 310 312 313 313 312 310 311 310 310 311 310 309 309 309 310 311 310 311 311 311 312 311 311 311 313 315 315 314 315 317
312 314 314 313 312 312 312 313 313 312 312 312 312 313 316 316 313 314 315 315 315 314 313 314 314 313 314 313 313 313 313 313 314 313 314 313 312 312 311 312 314 312 310 312 314 315 314 313 315 313 312 312 312 312 314 315 312 310 310 311 312 313 311 310 311 309 310 310 309 310 310 308 311 312 312 311 310 311 312 312 313 313 314 316 315 316 318 318
312 315 315 313 312 312 312 313 313 313 312 311 312 314 316 316 314 313 314 316 316 313 314 316 315 313 314 315 313 313 313 314 315 314 314 314 312 311 312 312 313 312 310 311 313 314 313 312 315 314 312 313 314 313 312 313 314 313 311 311 312 313 311 312 313 311 310 309 309 310 309 309 312 311 311 311 310 310 311 312 314 314 314 314 315 316 318 317
314 316 315 312 312 312 312 313 312 313 313 312 313 314 316 315 313 312 314 315 316 314 313 316 317 315 315 315 314 314 313 314 315 314 314 314 312 313 315 313 311 311 311 312 314 316 316 315 315 314 314 313 313 311 309 310 314 314 312 313 314 313 312 312 313 313 310 307 307 309 309 310 312 310 308 309 309 308 308 309 312 313 311 313 314 316 317 316
314 314 313 312 312 312 313 313 313 314 313 313 313 315 316 315 314 313 314 315 315 315 314 316 317 316 316 315 315 315 313 313 315 314 314 315 314 317 317 316 312 311 311 313 314 315 316 317 316 314 313 313 311 311 310 310 312 313 313 314 314 314 315 313 312 313 312 309 308 309 310 311 313 310 308 308 308 308 307 307 309 310 311 313 314 314 315 314
313 311 311 312 312 313 313 313 313 314 314 312 312 315 316 316 315 313 314 315 315 314 315 316 315 315 316 316 315 314 313 313 314 315 315 315 315 314 315 317 313 311 313 315 314 313 313 315 316 314 314 314 313 313 313 313 312 312 313 314 313 315 316 313 311 311 312 313 312 311 311 311 313 312 310 310 309 309 309 307 308 311 313 314 314 314 314 313
313 312 311 311 311 313 314 313 313 313 313 312 313 315 316 315 315 314 314 316 316 315 315 315 315 314 315 315 314 315 314 313 315 316 315 316 316 311 312 317 314 312 319 323 318 313 313 315 315 315 315 316 315 315 315 315 313 312 314 316 314 315 314 312 312 311 312 316 316 312 310 310 310 310 310 310 309 308 309 308 307 309 314 315 314 314 314 313
314 313 312 311 311 313 314 313 313 313 312 311 312 314 314 315 315 314 315 316 315 316 315 314 314 314 314 315 315 315 315 315 316 315 313 315 316 312 311 314 315 316 322 322 316 312 314 316 315 314 315 315 315 317 317 317 317 315 316 317 316 315 315 313 314 312 312 316 316 313 312 312 310 310 310 310 310 309 309 309 308 309 313 315 315 315 314 314
312 313 313 313 313 313 314 313 313 313 313 311 312 313 313 315 314 313 315 316 314 315 315 313 314 314 313 314 314 314 315 316 315 314 314 316 315 311 310 311 313 316 318 318 315 313 313 315 316 315 316 316 317 320 321 320 319 317 317 319 318 316 315 315 315 315 314 315 314 314 315 314 312 311 310 311 311 310 310 310 310 310 313 315 316 315 314 313
307 310 310 310 312 314 314 313 313 313 313 311 311 313 313 314 315 314 314 315 315 315 315 315 314 314 313 314 314 314 316 316 315 315 317 317 314 312 310 310 312 314 315 315 315 315 312 313 315 315 317 319 319 319 320 319 318 318 317 318 318 316 315 316 316 315 316 315 313 315 318 316 313 311 311 311 312 312 311 311 311 312 313 314 315 314 313 312
303 306 306 306 309 313 314 312 312 313 312 311 311 313 313 314 315 314 314 316 316 316 315 316 315 314 314 315 314 315 316 316 316 316 316 316 315 314 312 311 312 313 314 314 314 314 312 313 316 316 316 319 319 318 318 318 319 320 319 318 317 315 315 315 315 315 316 316 314 315 319 318 315 312 312 314 316 315 313 312 312 313 313 313 313 313 312 312
302 304 305 306 307 311 313 312 312 313 312 311 312 313 312 312 314 315 316 316 317 316 316 317 317 315 316 315 314 316 316 315 316 317 315 315 315 314 313 312 312 313 313 311 311 313 313 314 317 316 314 317 317 315 316 317 318 320 321 318 316 315 315 315 314 314 315 316 315 315 318 319 316 313 314 317 318 314 312 311 311 311 313 313 312 313 313 313
300 299 301 305 307 309 312 313 312 312 312 311 312 313 313 313 313 316 317 316 316 317 316 316 318 317 316 316 316 316 316 315 315 316 314 314 315 314 315 315 313 312 313 311 312 315 313 311 313 312 311 316 317 314 313 314 315 316 318 319 317 316 315 315 314 315 315 315 316 317 317 317 316 313 315 317 316 313 311 311 311 311 313 313 313 313 314 313
298 298 299 303 307 307 311 314 313 312 312 311 311 313 313 312 313 315 316 315 316 317 316 316 318 317 315 315 316 317 318 317 316 315 314 314 314 314 316 316 312 311 312 312 314 316 313 311 312 311 311 315 314 313 313 312 312 312 314 317 317 316 315 315 315 315 315 315 316 317 316 315 315 314 313 315 315 313 313 312 313 314 314 314 314 314 314 314
Wind_Speed
36 35 34 33 32 33 34 33 33 30 29 28 27 28 28 28 27 27 25 25 23 22 23 22 21 21 21 20 18 17 16 12 9 7 8 16 20 15 9 6 8 11 12 12 10 11 10 10 10 6 5 4 3 2 4 2 2 3 4 5 5 5 4 4 6 3 2 6 9 10 11 9 8 7 4 3 5 3 4 5 4 5 4 8 7 6 13 18
36 34 34 34 33 34 34 33 32 29 29 27 27 27 27 27 27 27 26 25 23 21 22 21 20 21 21 19 18 18 15 10 6 7 16 19 17 17 13 9 10 11 11 10 9 11 10 10 8 7 5 4 2 2 4 3 3 5 4 5 6 4 3 2 4 4 2 5 11 10 11 8 7 10 7 5 8 7 6 6 6 6 7 9 9 9 12 15
36 34 35 35 34 34 33 33 31 29 28 27 27 27 26 26 27 27 26 25 22 20 20 19 20 21 21 20 18 17 12 7 4 10 21 19 13 15 15 13 11 10 11 11 11 12 13 12 8 7 6 5 3 3 4 4 3 4 4 6 4 5 5 4 4 5 4 2 11 11 8 6 5 8 7 6 7 8 8 7 8 8 9 10 11 12 13 15
38 36 36 36 34 35 33 32 32 29 28 27 27 27 26 26 26 26 25 24 22 20 20 19 21 21 22 21 18 16 11 4 4 10 19 16 11 13 15 15 12 12 12 12 13 13 13 13 10 8 7 6 4 2 5 5 3 3 3 3 2 6 5 4 5 6 4 1 7 11 8 7 5 6 7 7 6 7 8 7 7 7 9 13 13 14 16 16
39 37 37 37 35 34 33 32 31 29 29 27 27 27 27 26 25 25 24 23 23 21 20 20 22 23 23 20 18 16 10 2 3 11 19 14 10 13 14 13 12 15 14 14 14 11 12 13 10 8 7 7 6 4 7 6 2 3 3 3 4 3 4 5 4 4 3 2 5 10 9 8 6 6 8 9 7 3 2 2 4 2 4 13 15 15 16 16
40 39 38 37 34 33 33 32 31 29 28 28 27 27 26 26 25 25 24 23 23 21 21 21 21 22 21 18 17 15 9 3 2 10 18 15 13 14 13 12 13 16 15 13 11 8 9 11 9 8 7 7 9 8 7 5 1 3 4 3 4 3 4 5 4 3 1 1 6 8 7 7 8 7 7 10 7 4 6 6 7 5 4 12 16 16 16 15
40 39 38 36 34 34 33 32 31 29 28 28 27 26 27 26 26 25 24 24 23 21 22 22 21 22 20 18 15 11 9 4 1 6 13 15 15 14 14 14 15 15 14 12 10 8 8 10 10 8 8 8 9 10 7 6 5 5 3 5 3 5 5 4 4 3 0 1 3 4 5 7 9 6 4 9 7 6 7 6 6 5 6 11 14 15 15 16
39 39 37 36 34 34 34 33 32 30 29 28 27 28 28 27 26 25 24 24 23 22 21 22 24 24 23 20 12 6 8 6 4 6 12 16 17 16 16 15 15 14 15 14 12 10 9 11 11 8 9 7 7 9 7 7 9 8 3 6 3 4 6 5 5 4 2 1 1 2 5 5 4 1 2 9 7 6 6 5 6 6 7 9 12 13 14 15
39 38 37 36 34 34 34 33 32 32 31 28 28 29 28 27 26 25 24 24 23 23 21 23 25 25 24 15 8 6 9 14 11 6 10 16 18 18 17 16 17 16 16 15 13 13 9 10 12 9 7 5 5 7 7 9 8 5 5 8 6 5 6 5 5 5 3 2 2 6 6 3 3 2 4 8 5 6 5 4 5 5 6 8 9 11 12 13
39 38 36 36 35 35 34 33 33 33 32 29 29 29 26 26 26 25 24 24 24 23 22 23 24 27 22 9 8 7 7 17 18 9 9 12 13 14 16 17 19 19 15 12 13 14 11 10 10 5 4 4 4 4 6 7 3 6 9 8 8 6 5 3 5 5 3 3 3 6 5 3 3 1 5 6 5 4 5 6 6 6 7 7 8 9 11 12
39 38 37 36 35 35 33 33 33 32 32 30 28 26 23 24 25 24 23 23 24 23 23 24 25 29 19 8 10 7 2 13 20 12 9 11 9 9 15 20 21 21 16 11 14 16 13 9 5 3 2 2 5 3 3 4 1 9 12 10 8 6 6 3 5 6 3 4 2 3 3 3 3 3 4 5 5 3 6 8 7 7 7 8 9 8 9 10
39 38 37 36 36 35 33 33 33 32 31 28 26 24 23 24 25 24 22 22 23 23 23 23 27 27 14 6 7 5 3 11 16 13 11 11 9 7 12 19 19 21 17 10 14 17 14 5 4 8 3 2 5 3 3 2 2 9 11 8 7 6 6 4 5 4 2 3 2 2 3 5 7 9 5 7 4 3 5 8 8 8 7 7 8 8 7 9
39 38 37 37 36 34 33 32 31 30 29 26 25 24 24 23 24 24 22 22 22 22 22 22 26 21 9 6 6 4 5 9 12 14 13 11 10 9 13 16 15 19 17 12 10 13 15 8 8 9 3 3 3 3 3 3 2 8 8 6 7 6 6 5 4 4 3 3 3 3 4 6 11 12 6 7 4 4 5 7 7 8 7 7 7 7 7 9
39 38 39 38 36 35 33 31 29 28 27 26 26 25 25 23 24 25 22 21 21 20 21 21 22 14 5 5 4 5 6 8 11 14 14 13 11 11 13 14 12 15 18 14 9 8 14 11 8 6 0 3 2 4 4 4 3 6 5 4 6 6 6 7 5 5 4 2 3 5 5 4 7 10 6 5 4 4 6 8 7 7 7 7 7 7 7 9
39 39 39 38 36 34 32 30 28 28 28 28 28 25 24 23 22 23 21 20 20 20 20 18 16 9 5 4 3 7 8 7 9 12 14 15 13 10 11 13 12 13 14 13 11 8 10 9 7 5 3 1 4 6 5 5 5 6 5 5 7 6 5 7 5 5 3 3 6 6 5 5 5 8 6 3 4 5 7 8 7 7 7 8 7 8 8 8
40 40 39 38 36 34 33 32 29 29 30 29 28 25 24 22 22 23 21 20 20 21 18 15 15 8 5 5 3 6 8 6 9 11 13 16 13 9 11 12 9 9 9 9 10 7 8 8 4 2 4 5 7 7 5 5 6 6 6 5 6 8 6 6 5 3 1 4 8 8 5 4 4 6 4 3 4 6 7 8 8 8 7 7 7 7 7 8
41 40 39 38 36 35 35 33 31 31 30 29 28 26 23 21 22 22 20 20 19 19 13 10 14 6 3 4 4 6 8 7 10 12 14 16 13 10 13 10 7 7 6 5 8 8 7 6 2 2 4 6 8 7 7 7 7 6 6 3 3 7 7 5 4 4 4 4 8 10 8 7 3 6 6 5 4 6 7 8 9 8 7 7 7 7 8 8
42 40 39 38 36 36 36 34 34 32 30 31 28 26 24 22 23 22 21 20 17 15 7 5 12 6 3 7 5 5 8 10 12 13 16 15 12 13 11 6 8 10 8 5 6 6 5 4 3 5 6 7 9 9 8 8 9 9 8 5 2 4 5 4 4 5 8 6 7 10 10 12 8 5 7 8 7 6 6 6 6 8 8 8 7 7 8 8
41 40 39 37 37 37 36 36 36 34 33 31 29 29 26 22 19 16 18 19 15 11 5 8 13 4 3 10 6 5 9 13 13 10 13 13 12 13 8 6 10 10 8 5 6 7 4 3 5 6 8 9 10 12 9 6 9 12 12 9 6 6 5 3 4 3 4 6 8 11 10 12 12 9 8 9 10 7 7 6 5 6 7 7 8 7 8 9
41 39 39 37 38 38 38 38 37 37 35 31 34 30 19 17 13 9 12 14 11 6 1 11 15 3 2 8 10 11 11 12 9 6 12 14 13 11 6 6 8 6 7 7 7 6 4 6 7 8 10 12 14 13 5 2 5 11 12 9 7 7 6 5 6 3 1 3 8 12 11 11 12 11 9 8 9 8 9 9 8 8 8 8 9 9 9 10
41 40 39 38 39 39 39 38 37 38 33 32 34 20 11 15 10 10 14 10 6 2 3 13 16 3 3 5 11 15 10 6 5 6 13 15 12 10 5 6 8 7 7 9 7 4 4 8 10 10 9 9 11 8 2 2 4 8 8 8 7 7 4 5 5 4 3 3 6 7 9 12 12 11 10 9 9 10 11 11 11 11 10 9 10 11 11 8
41 40 40 39 40 40 40 39 37 36 31 31 29 11 7 10 6 16 19 8 6 4 2 15 14 2 4 5 8 7 5 7 7 7 11 12 10 7 5 6 10 8 6 7 7 5 6 10 11 10 4 4 5 3 2 3 4 6 6 6 6 4 5 5 4 5 4 3 3 2 6 11 11 11 11 11 12 11 11 12 11 10 10 10 10 10 9 7
41 40 41 40 41 41 40 37 34 33 30 29 26 10 3 9 18 30 19 6 8 2 3 15 13 4 5 5 4 2 4 9 9 9 12 12 7 4 7 9 11 9 8 9 8 7 8 7 6 8 7 6 5 4 6 4 4 5 5 6 5 6 5 2 4 6 3 2 2 3 5 8 9 10 11 13 11 7 7 7 7 6 7 8 6 4 4 6
41 41 41 41 41 40 38 35 31 30 26 25 24 13 5 18 31 29 11 5 9 2 2 7 6 6 6 5 6 5 4 3 5 9 14 13 7 3 7 9 10 8 8 12 12 10 6 0 1 4 8 8 6 7 8 6 5 4 4 6 4 7 5 2 6 7 3 3 2 4 6 7 9 11 11 9 5 4 5 5 7 7 7 7 5 4 4 5
42 41 42 42 40 39 38 33 28 26 23 21 22 16 11 24 28 20 7 6 7 3 1 3 1 3 6 6 6 5 4 2 1 4 9 10 6 4 4 3 5 9 11 14 13 10 4 2 2 4 9 10 9 8 9 8 6 4 5 4 1 6 7 7 9 8 3 5 4 2 5 5 6 10 11 6 4 6 7 7 10 9 7 6 6 6 6 5
43 41 43 42 39 41 36 23 21 26 20 18 21 14 15 23 19 13 6 5 6 5 6 7 3 6 9 6 5 5 5 3 1 2 5 5 2 4 4 2 0 5 10 10 7 4 2 2 2 5 8 9 10 9 10 9 7 5 4 1 2 4 7 9 9 6 2 2 2 2 6 4 3 6 7 5 5 7 6 7 9 8 6 6 5 5 4 5
43 42 42 41 40 41 28 15 22 26 14 14 21 16 19 23 13 6 3 4 7 6 7 5 2 9 10 4 6 7 5 6 5 3 4 2 2 2 3 6 3 2 3 4 4 1 4 4 2 5 7 7 8 8 8 10 7 2 0 1 5 6 7 9 8 6 1 2 3 2 3 4 5 3 4 4 4 7 8 9 8 7 6 5 4 3 3 3
43 44 42 39 42 36 20 18 28 24 10 10 19 20 22 20 8 3 4 5 5 5 7 4 2 8 7 2 6 4 3 8 8 4 2 1 2 1 2 8 7 4 1 2 6 2 4 6 6 8 8 7 6 2 5 10 7 0 1 1 4 5 7 9 6 4 0 0 4 4 3 3 6 3 4 3 5 8 9 10 8 7 5 4 3 2 2 2
43 45 41 41 41 25 13 22 28 23 16 13 18 24 23 15 5 4 4 4 5 4 4 5 5 7 6 6 7 3 4 4 2 4 5 3 2 0 1 5 7 7 3 1 3 1 2 2 2 5 7 5 2 4 3 4 3 3 3 3 5 4 5 5 5 3 2 4 5 5 4 4 5 4 4 3 4 8 8 7 7 6 5 4 3 2 2 2
46 44 40 43 37 19 15 22 23 23 20 16 21 26 20 8 5 8 6 4 7 5 4 6 8 10 11 11 8 6 7 3 2 6 6 4 4 2 0 1 5 7 3 4 4 2 1 0 2 1 1 1 5 5 5 3 5 8 7 7 7 5 4 3 2 2 4 6 3 3 2 3 4 4 5 3 2 3 4 6 6 6 6 5 3 3 1 1
47 43 41 42 31 20 18 15 22 26 18 18 24 22 13 5 5 8 6 4 7 5 4 7 11 14 17 16 9 8 8 5 7 10 7 5 6 5 4 3 3 4 2 2 3 2 3 2 1 1 1 1 4 6 5 3 5 6 5 7 6 4 3 3 3 3 6 5 1 2 1 2 5 4 2 1 2 2 1 5 8 7 7 6 4 3 1 1
46 41 42 39 25 20 12 7 25 29 17 21 21 11 8 7 6 8 6 7 7 7 8 11 14 15 18 17 10 10 10 6 8 12 10 8 7 8 8 6 6 5 4 6 4 3 3 2 2 2 1 3 3 5 5 1 3 3 6 8 6 5 5 5 5 5 6 2 3 1 1 3 7 6 5 3 2 3 2 2 5 7 7 6 4 3 2 1
43 40 42 35 22 18 9 9 28 29 20 23 14 4 7 8 8 10 8 7 5 7 10 12 14 15 18 15 9 11 10 6 10 11 11 10 8 8 5 4 8 6 4 6 5 4 3 2 2 3 2 4 5 5 5 4 5 7 8 8 7 6 5 6 6 5 4 1 2 0 1 3 5 6 8 7 3 5 4 2 2 3 3 3 2 2 1 1
41 40 40 30 20 17 10 13 28 28 23 18 7 5 9 8 8 10 10 7 4 7 11 14 14 16 17 12 10 12 6 3 9 10 10 9 7 8 5 5 8 4 3 7 5 5 6 3 4 4 3 5 6 3 1 5 8 5 3 3 6 5 4 5 5 4 3 3 2 1 2 4 3 1 1 1 3 4 3 2 1 2 1 1 1 1 0 1
39 39 35 25 20 17 10 16 29 28 20 10 4 7 10 9 8 10 10 7 6 9 13 15 15 15 13 8 9 10 1 1 7 6 8 10 8 10 9 9 9 5 5 7 3 3 5 1 1 0 1 3 4 2 3 3 7 3 1 1 4 2 1 1 0 1 2 1 2 3 3 4 3 2 3 4 3 2 2 2 1 3 2 1 1 1 2 2
38 34 28 21 20 16 11 19 29 24 13 7 7 9 9 7 6 9 8 8 8 13 16 15 13 11 11 6 6 7 1 2 9 6 6 8 7 10 10 9 10 9 8 6 2 2 3 0 2 1 0 1 2 2 3 1 3 3 2 3 2 2 3 3 1 2 1 3 3 4 4 3 3 6 3 6 5 4 4 3 3 4 3 3 2 3 4 2
33 27 19 16 19 17 13 18 25 17 7 6 10 10 6 2 2 5 9 11 12 15 15 12 9 10 11 7 8 11 5 5 8 6 6 6 6 10 11 8 10 13 8 2 1 2 3 2 2 2 2 3 2 2 2 2 0 2 3 4 3 1 1 1 2 1 2 5 2 3 5 4 3 3 2 6 6 6 6 6 6 5 4 4 4 4 4 3
27 19 12 14 20 18 13 15 18 12 3 5 12 12 4 2 0 4 11 14 14 15 13 10 8 10 11 9 10 12 10 8 8 7 7 7 5 10 13 6 6 11 6 1 1 2 2 2 2 2 1 2 1 1 1 1 1 1 1 1 2 2 3 3 3 2 4 5 3 3 5 4 5 4 2 4 7 8 8 7 6 7 6 5 5 5 5 5
21 12 6 14 20 18 15 14 12 8 4 7 12 10 4 3 1 2 8 13 13 12 12 10 8 8 10 11 11 13 12 10 10 8 6 7 5 8 14 8 4 7 6 3 2 2 2 1 1 1 1 1 1 2 4 4 2 1 1 0 0 1 2 3 3 3 3 5 4 3 3 3 5 6 5 4 5 7 9 8 7 7 7 6 6 6 5 6
13 6 5 16 21 18 17 14 8 6 6 8 8 5 4 4 2 1 1 5 7 6 8 11 11 9 10 12 12 12 11 9 11 9 6 8 6 3 9 10 6 6 5 4 1 3 2 1 2 2 1 2 3 2 3 4 4 4 4 4 3 1 0 1 3 1 1 3 5 4 3 2 2 4 6 4 4 3 4 5 6 6 6 5 6 6 5 6
6 4 6 18 24 22 19 11 7 7 7 8 6 4 4 5 6 4 2 3 2 1 2 7 10 9 10 11 11 11 8 7 9 7 4 8 9 4 5 9 9 8 6 3 2 3 2 0 3 4 3 4 2 1 1 0 1 3 4 6 6 4 3 3 4 2 0 2 3 2 3 1 2 1 2 2 4 3 1 1 3 5 5 5 5 6 6 6
4 3 9 22 28 26 18 8 7 7 6 7 4 3 5 5 7 8 3 1 2 2 0 2 5 7 9 9 10 11 8 6 8 7 4 7 10 6 3 5 10 12 8 4 2 1 1 2 4 4 3 2 1 2 1 1 1 2 3 3 4 5 6 6 5 3 3 2 1 1 3 1 2 1 1 1 2 2 2 0 1 2 4 4 5 6 6 6
3 3 10 24 32 25 13 7 8 7 6 5 4 5 5 5 7 7 6 5 2 1 2 2 2 4 6 6 8 11 11 6 7 9 6 5 5 1 0 3 10 13 8 4 3 1 1 3 4 3 2 1 1 1 1 0 1 3 3 3 3 5 4 3 2 2 3 4 3 3 4 2 1 1 1 1 1 0 1 2 2 2 3 5 6 7 6 6
4 3 6 19 30 22 9 7 11 10 7 7 6 5 3 3 7 8 8 8 4 4 5 4 2 2 2 4 7 12 13 6 5 7 4 3 3 2 1 4 8 11 7 3 5 6 3 3 5 4 3 2 2 2 2 2 3 5 5 5 6 4 3 2 1 1 3 6 6 5 6 4 1 1 1 2 2 2 2 3 3 2 3 6 6 6 7 6
4 3 4 8 17 14 7 4 7 9 10 10 10 9 6 3 3 4 7 7 3 3 6 3 2 3 4 4 5 9 12 5 2 4 1 1 2 2 2 2 5 7 3 2 3 7 5 4 6 6 5 6 6 6 6 5 4 4 4 6 9 8 7 5 3 3 5 6 7 7 7 3 2 2 3 3 3 3 2 3 4 3 4 6 7 7 7 6
3 4 4 5 5 7 6 3 3 7 11 12 9 10 11 8 3 0 3 4 1 2 3 3 3 5 5 7 7 9 11 3 2 4 5 3 2 1 1 1 0 1 3 4 2 6 3 2 6 9 9 9 8 9 9 7 6 8 11 11 11 12 12 7 3 6 7 4 5 8 8 5 3 5 5 4 5 5 3 5 5 4 5 6 7 7 6 6
1 3 6 6 4 6 8 8 7 7 11 13 9 9 14 12 7 4 2 2 4 4 3 3 5 7 8 11 9 9 12 7 3 5 7 4 2 2 2 2 2 2 3 1 3 4 3 3 8 12 12 8 3 3 7 9 8 12 15 13 12 12 12 9 7 10 7 4 6 10 9 9 7 7 8 6 6 5 5 7 7 6 6 5 5 6 6 6
0 1 2 1 1 7 11 13 14 11 13 15 9 10 16 14 11 9 4 2 6 7 3 2 6 10 13 14 9 8 11 8 5 5 5 5 4 3 2 2 2 1 2 1 1 1 3 6 9 12 11 5 4 3 5 9 8 9 9 10 11 13 13 12 13 13 8 6 11 11 10 12 11 8 9 8 6 6 5 6 5 5 5 4 5 7 7 7
1 2 1 3 2 4 9 11 14 14 15 16 9 10 17 18 15 12 7 6 7 8 6 7 10 12 13 13 10 8 10 9 7 6 5 5 5 4 3 2 1 1 2 3 2 1 3 6 7 11 11 5 4 3 3 6 7 6 7 10 12 13 15 14 14 15 13 12 14 10 7 10 10 9 9 5 4 3 3 4 4 5 6 6 7 9 9 9
1 1 1 1 2 2 7 11 13 12 12 13 11 10 14 18 18 12 8 8 10 10 9 9 12 14 13 13 11 9 12 13 11 9 9 8 5 4 4 3 3 2 1 3 2 0 2 3 4 6 7 4 4 3 0 2 4 5 5 9 11 12 13 14 14 14 14 14 15 12 9 9 7 8 7 3 5 4 3 3 5 6 7 9 10 10 9 10
1 3 2 2 2 3 8 12 13 11 10 10 12 12 14 19 20 12 7 5 7 9 12 11 11 10 7 10 12 9 10 11 9 11 16 12 8 7 5 4 7 8 4 4 3 2 1 1 3 4 6 4 2 3 3 4 3 0 3 9 13 13 12 13 13 13 13 14 15 12 11 10 6 7 6 4 5 4 4 5 6 6 8 10 11 10 10 11
2 3 3 0 2 2 5 9 12 12 10 11 12 11 12 17 18 12 7 3 3 5 10 11 11 8 4 8 11 7 5 4 2 7 12 7 4 5 2 3 10 12 9 7 4 3 5 4 2 4 7 3 2 2 5 5 1 4 7 11 15 15 14 13 11 12 15 15 12 10 11 8 4 8 8 6 5 6 7 6 6 6 7 9 10 9 10 11
Wind_Direction
183 184 183 182 182 183 183 182 184 185 186 184 182 184 185 186 187 189 190 191 196 197 196 196 193 192 197 203 204 213 225 225 229 228 228 234 223 210 211 223 264 284 299 302 284 273 277 262 240 231 242 218 235 190 156 200 214 226 219 215 218 206 190 169 175 158 106 137 144 159 175 183 160 161 160 152 216 199 162 183 140 129 105 89 99 97 127 142
182 185 184 182 183 184 183 181 182 182 183 181 181 184 183 184 185 187 190 191 194 195 194 193 192 190 194 201 202 208 214 209 212 240 237 232 223 220 226 234 257 280 289 279 267 266 265 256 228 207 227 215 200 169 170 171 186 222 224 214 221 189 111 87 132 96 16 155 150 160 181 193 169 157 163 193 195 188 201 190 173 167 144 119 119 131 144 154
182 184 184 182 183 185 184 181 181 181 181 181 182 183 182 182 183 185 188 190 192 192 191 190 190 189 192 199 202 202 191 178 205 245 243 236 223 220 222 228 248 273 275 266 263 267 266 265 250 211 218 223 201 182 190 168 182 228 231 221 204 117 94 69 98 94 28 117 150 158 174 188 160 147 164 204 194 188 212 194 184 192 173 152 140 147 156 168
182 183 183 183 184 186 184 180 180 180 181 181 183 182 181 180 181 184 185 188 188 188 189 187 189 190 192 196 197 186 164 167 229 236 245 244 228 221 217 223 249 264 266 268 261 266 272 271 263 228 222 222 189 187 201 173 183 209 216 244 119 117 123 97 90 94 47 2 157 149 162 178 152 152 177 197 196 193 213 202 185 199 184 162 149 155 164 173
181 182 183 184 185 188 186 181 179 180 180 180 181 181 179 179 179 182 183 185 184 185 186 184 189 188 188 189 181 172 165 213 233 225 240 240 223 228 223 225 256 260 256 263 259 261 266 263 254 231 228 219 177 188 209 185 202 207 193 7 59 117 123 108 90 83 49 337 152 149 167 168 142 171 193 201 211 182 172 139 112 57 152 157 152 155 164 174
180 182 184 185 186 188 187 182 180 180 181 179 179 179 178 178 179 179 181 183 181 182 182 182 183 182 181 176 169 179 197 217 140 207 225 219 209 228 232 235 258 256 246 248 250 252 251 247 238 220 224 220 189 191 201 184 240 235 181 77 50 54 88 115 104 86 35 182 163 161 158 145 156 186 196 215 226 85 71 64 73 54 88 144 149 154 165 177
180 181 183 185 186 188 187 183 182 182 183 181 179 178 178 178 178 179 180 181 180 178 179 179 176 176 171 158 161 197 227 236 204 196 206 205 206 219 229 244 255 244 230 227 230 239 238 230 224 215 217 218 197 191 183 177 225 252 178 127 78 55 87 107 103 119 185 172 153 142 143 160 186 185 167 224 226 110 98 78 84 101 125 144 151 161 172 180
180 181 182 183 184 187 187 186 184 183 185 183 178 177 177 177 176 177 178 179 179 175 178 177 175 175 161 151 159 201 230 222 206 186 191 198 203 211 220 243 252 222 209 215 214 225 233 226 221 216 219 217 197 190 171 177 217 240 176 129 114 78 95 100 111 141 156 124 77 145 175 168 179 135 155 225 217 135 126 116 109 118 139 158 165 170 176 181
180 181 181 183 184 185 185 185 184 184 185 181 177 175 175 176 175 176 177 177 178 176 175 173 177 172 157 158 178 188 215 208 200 187 179 182 188 204 216 235 241 213 206 216 215 225 233 226 218 218 240 235 193 190 183 194 212 208 151 126 124 105 103 112 124 140 152 143 157 186 182 119 68 349 239 219 183 121 136 161 152 142 153 168 175 178 180 183
180 181 181 182 182 182 182 180 180 180 179 177 174 173 172 174 175 177 177 176 177 176 174 173 173 166 160 181 197 191 222 207 210 212 171 163 169 195 211 217 222 212 207 214 217 222 227 233 223 216 289 268 192 194 196 212 211 129 128 114 114 109 107 129 127 132 142 132 186 201 169 112 94 243 235 182 129 121 168 185 178 182 186 179 179 184 186 188
179 179 179 181 180 177 173 172 172 172 171 172 171 170 170 174 177 178 177 176 176 175 174 173 168 163 170 208 199 195 214 191 207 212 168 162 171 197 206 201 203 205 204 212 218 218 224 245 231 175 306 235 179 190 195 238 263 132 129 108 108 113 111 126 127 137 162 140 206 239 149 131 126 215 229 129 118 161 193 195 184 198 202 189 186 184 187 192
177 177 176 178 176 170 167 167 166 166 168 170 170 170 169 171 175 175 173 173 174 173 173 172 167 163 172 221 215 207 152 169 195 198 175 178 193 199 197 195 198 202 202 215 223 221 226 248 221 207 237 216 170 165 167 215 219 156 148 129 131 142 136 141 127 147 209 151 183 254 184 199 198 216 192 123 131 149 191 203 189 199 200 191 188 181 188 191
175 175 175 174 171 166 164 165 165 166 168 169 171 170 168 166 168 170 167 168 171 169 170 169 166 164 178 214 216 209 162 160 180 187 185 189 193 184 189 194 201 205 205 224 235 224 224 232 237 224 246 269 184 127 123 118 180 177 178 163 150 175 173 156 133 164 197 125 172 229 237 222 203 204 155 120 158 157 195 206 190 197 192 189 187 185 194 189
175 174 173 172 168 164 164 166 165 167 170 171 169 165 162 162 164 165 162 163 165 165 167 167 164 167 203 203 182 208 180 152 167 180 183 185 179 174 188 193 200 208 209 228 248 232 223 225 243 226 202 301 156 125 138 127 193 184 179 188 178 198 172 144 144 176 180 129 193 221 249 244 172 170 139 121 178 189 220 217 198 197 186 189 188 191 200 193
173 172 171 170 166 163 163 165 163 165 169 167 162 157 157 159 161 163 160 160 160 161 160 162 168 174 217 208 172 203 189 158 171 184 184 180 171 168 186 188 192 205 210 228 240 235 216 202 221 209 138 105 144 161 167 151 200 186 176 197 197 205 153 135 150 179 185 155 197 214 240 244 144 134 128 134 194 208 230 226 207 200 191 192 189 196 206 203
170 169 169 167 164 163 162 164 163 163 162 158 153 150 152 154 156 158 156 153 153 156 153 159 181 199 226 195 154 186 185 179 184 192 191 180 177 175 167 166 170 189 201 223 221 205 188 185 222 234 145 157 173 182 173 168 197 196 205 197 185 197 169 145 153 178 196 152 196 222 255 249 139 127 137 143 197 208 226 232 217 209 202 196 195 199 206 207
169 167 166 165 164 163 162 164 164 160 155 151 148 146 148 150 151 148 144 147 148 152 151 160 179 209 278 164 158 191 180 180 183 186 189 182 185 175 153 144 140 152 154 172 184 172 177 185 197 215 182 185 194 193 184 190 195 191 211 204 172 201 187 163 151 162 186 188 210 217 242 256 168 133 158 166 190 199 215 230 222 217 212 204 203 202 206 211
168 166 165 165 164 164 163 163 162 157 151 148 147 147 145 143 142 138 136 142 138 139 147 162 169 193 246 179 174 173 156 167 176 177 185 181 177 170 155 143 140 143 140 141 175 180 183 190 192 199 197 200 203 199 197 201 196 182 192 199 163 207 221 196 155 153 180 205 223 209 223 246 232 171 166 172 186 205 219 229 230 227 220 211 208 212 215 215
167 166 165 165 164 164 163 161 159 155 149 146 144 141 136 133 134 135 144 153 150 150 172 177 175 196 189 174 161 102 132 161 165 166 179 173 168 172 164 150 151 154 155 155 185 188 174 175 205 210 197 199 203 205 211 214 201 184 185 202 190 189 214 175 104 105 184 201 219 218 226 241 239 222 201 183 182 206 234 237 242 236 228 221 216 220 221 223
167 167 166 164 163 162 161 160 157 155 153 147 144 141 137 141 144 151 166 177 174 168 212 173 182 238 64 148 139 120 127 150 156 166 178 170 163 169 160 149 161 177 183 174 170 172 182 189 201 211 203 200 203 207 220 300 221 192 187 205 201 192 195 142 102 98 199 221 220 225 238 246 246 239 229 206 184 203 234 238 239 234 229 227 222 224 225 229
168 167 166 165 163 161 161 161 158 158 158 155 153 152 158 164 165 163 166 175 159 35 330 170 174 197 38 120 134 132 128 140 157 165 172 171 166 169 168 163 173 190 198 179 154 134 192 209 207 211 208 196 197 198 188 318 228 196 190 198 201 202 181 112 104 129 149 243 222 216 245 252 251 250 246 231 212 219 233 237 240 236 232 227 222 226 228 227
168 167 166 165 165 164 162 162 160 161 161 163 168 175 175 172 138 142 150 144 123 28 3 164 168 127 72 129 141 130 131 150 157 160 168 173 178 185 175 178 186 180 170 165 151 148 196 221 209 192 159 123 144 150 180 235 222 202 198 199 206 185 131 100 106 127 147 230 218 174 254 259 253 253 248 240 234 232 232 235 239 238 235 229 220 221 223 214
168 166 166 165 165 164 162 162 161 163 165 172 184 204 196 153 133 141 149 129 129 86 129 161 179 172 108 134 163 154 153 157 164 170 173 174 178 189 169 182 195 176 164 181 183 184 196 220 202 151 125 126 129 163 195 216 221 216 203 202 203 159 151 182 158 142 154 224 309 334 281 269 257 252 246 237 235 231 226 231 237 240 238 234 233 233 221 213
168 166 165 164 163 163 162 162 162 168 177 183 195 217 179 143 146 153 157 122 139 125 127 160 181 177 139 136 172 188 170 154 167 167 175 177 159 159 177 187 196 180 182 197 200 204 192 31 335 141 152 168 164 178 198 208 209 215 222 220 197 160 157 64 134 144 150 201 269 302 281 269 245 239 238 224 211 219 215 220 234 237 232 235 256 270 244 228
167 166 165 163 162 162 160 161 164 174 183 190 207 227 182 151 155 169 161 127 148 101 115 183 184 176 158 143 162 170 145 115 71 144 174 185 156 140 172 190 207 196 193 197 205 217 194 34 305 177 169 185 182 185 200 210 209 204 220 233 206 169 148 102 132 152 178 206 200 234 259 266 222 222 230 199 176 221 207 211 232 232 219 212 230 242 230 222
167 166 165 163 161 159 159 163 172 175 179 201 217 219 185 168 167 182 168 137 167 141 151 174 171 170 160 154 157 142 151 167 26 83 158 190 148 128 164 145 296 210 190 187 209 234 131 68 277 170 168 183 191 203 198 200 220 210 206 195 108 159 145 132 157 175 213 210 139 191 243 258 204 207 211 182 200 224 202 209 229 225 209 199 211 223 209 211
167 165 164 163 161 158 158 164 170 170 176 213 214 200 184 180 176 196 181 156 182 161 151 163 190 172 157 165 176 156 160 147 117 136 159 181 151 96 170 170 159 218 171 158 202 215 120 147 183 163 170 177 193 211 184 190 223 213 95 155 147 159 160 157 174 196 221 84 118 199 242 264 257 209 149 155 217 230 218 219 217 204 197 189 195 204 195 218
165 164 163 163 163 161 159 159 164 174 190 197 194 188 179 177 179 211 189 177 172 143 150 155 152 160 144 152 185 171 128 134 139 163 127 92 161 101 188 184 175 162 122 184 199 183 105 161 171 164 178 186 197 226 156 187 216 157 21 251 143 153 167 168 184 197 131 357 201 186 169 247 257 220 134 155 233 236 227 213 194 180 174 165 170 172 170 211
163 163 164 164 164 163 159 161 166 182 196 181 178 177 171 171 183 193 203 195 152 127 149 148 146 154 147 162 174 152 118 128 136 147 130 126 164 48 192 183 154 126 74 350 173 72 34 184 190 175 190 185 134 30 34 198 196 147 160 117 98 114 138 161 195 177 157 244 225 168 171 242 264 228 178 170 232 236 222 187 163 156 147 144 149 142 151 182
164 163 163 163 164 162 153 163 177 187 190 182 173 168 164 169 184 181 207 202 149 140 137 147 166 165 160 167 171 167 153 122 80 129 138 153 144 111 48 136 120 118 91 40 74 53 17 284 302 292 217 156 99 64 21 21 116 141 155 125 107 119 126 150 196 171 198 230 212 126 160 262 278 240 196 182 217 220 193 159 147 145 139 136 131 126 140 152
164 164 164 164 165 162 151 164 191 190 186 175 166 161 163 172 189 188 191 157 136 142 150 157 164 164 172 174 164 169 160 121 142 149 146 152 143 143 150 146 122 113 144 136 95 86 109 137 185 68 347 210 124 89 39 44 136 148 158 142 128 130 152 176 173 196 226 225 146 72 3 246 240 233 170 112 77 83 172 164 158 155 144 136 128 115 106 114
165 164 165 166 165 164 163 181 187 184 173 164 161 163 173 162 193 206 165 142 153 169 176 171 165 168 181 179 157 160 155 133 164 166 158 165 166 168 173 178 166 151 188 187 158 128 121 121 123 81 288 241 175 120 79 66 179 188 172 162 165 163 174 200 189 199 224 206 98 84 344 244 242 249 256 262 172 155 180 140 141 146 141 133 123 96 60 74
165 164 165 168 168 175 198 191 179 176 162 160 166 190 182 169 199 202 170 160 163 158 166 167 166 170 177 177 160 155 151 144 172 173 168 170 173 179 192 197 181 185 198 171 154 156 154 133 155 157 186 229 217 168 143 170 194 195 182 179 193 180 178 202 193 201 222 146 82 128 266 254 258 260 255 253 197 143 136 95 78 107 121 105 82 27 5 65
164 164 166 171 175 184 202 180 175 172 158 163 180 179 183 196 199 189 178 174 141 141 155 154 156 167 176 180 162 154 142 144 170 169 166 169 177 185 197 206 198 206 162 154 161 182 185 187 180 171 159 190 209 216 147 169 179 192 195 201 211 201 203 207 196 203 189 108 101 162 227 234 231 110 170 167 84 95 116 105 44 352 334 353 341 315 291 127
162 164 167 172 179 189 192 173 173 169 158 166 185 173 192 205 189 185 181 158 139 146 145 144 150 164 176 174 157 161 149 148 172 171 168 176 187 186 187 196 198 192 163 164 168 182 188 203 92 71 290 197 192 295 341 170 175 183 4 261 233 243 162 156 160 149 118 86 158 181 241 256 271 280 193 151 132 150 150 129 203 252 224 190 249 176 138 120
160 166 171 173 181 189 181 168 170 169 165 171 176 188 205 199 180 185 164 134 145 146 136 144 158 167 173 164 163 185 278 135 170 174 178 190 199 191 188 187 185 190 187 172 153 168 175 64 25 25 14 41 13 332 337 267 182 166 170 196 214 16 69 124 145 86 68 266 189 164 238 256 269 268 215 148 151 161 161 168 200 216 186 176 192 153 139 129
158 165 172 174 180 184 175 164 165 170 187 191 188 198 199 170 190 178 146 130 143 146 141 153 172 178 175 169 180 186 166 140 172 184 178 185 204 197 193 184 177 189 198 165 167 210 171 127 23 3 97 62 353 314 7 358 9 144 178 177 139 53 9 210 223 144 190 242 201 160 226 233 220 237 138 142 169 165 166 180 184 182 179 182 170 141 137 143
155 159 166 171 177 181 170 156 159 169 206 205 202 207 186 89 225 153 138 136 144 154 161 164 172 185 182 174 179 179 168 162 179 189 174 174 201 192 184 179 171 184 187 74 163 196 147 132 58 3 74 78 356 251 162 151 2 359 233 182 119 199 214 197 216 211 198 226 233 181 207 241 228 210 151 162 180 178 174 172 177 183 185 178 156 137 140 146
149 149 164 169 173 177 165 148 152 169 201 205 206 207 169 102 162 142 134 144 152 165 176 170 166 184 190 181 171 169 178 180 171 175 181 180 192 187 182 178 161 175 161 107 175 155 98 174 144 77 9 86 156 230 196 175 143 36 272 209 44 260 231 195 207 235 222 225 236 198 185 227 218 208 215 192 165 179 178 167 179 193 186 170 146 143 154 154
147 140 154 164 169 172 159 145 151 179 203 210 207 194 141 118 155 271 40 139 153 172 188 175 165 172 182 180 168 164 181 184 169 179 196 178 175 197 193 179 152 147 125 84 166 154 110 253 159 109 35 184 187 214 208 182 164 173 182 176 179 178 290 237 221 229 261 235 235 234 231 216 163 198 222 191 112 132 166 162 176 181 166 145 134 148 157 148
148 138 145 163 169 166 154 146 171 188 206 214 207 178 144 127 146 164 2 15 73 23 216 170 163 169 171 173 169 162 171 177 174 186 186 176 189 216 201 177 151 138 128 114 180 173 162 192 137 139 176 192 180 25 349 342 165 195 196 188 190 172 148 201 210 163 22 259 246 249 256 234 95 84 234 135 103 101 89 133 164 154 143 135 134 148 148 141
160 141 147 163 169 164 156 160 186 191 213 211 181 122 132 134 148 157 152 76 66 37 359 146 151 164 166 172 170 159 161 171 180 190 191 190 200 200 192 173 153 150 153 146 150 167 79 94 117 136 170 180 98 49 39 311 268 272 250 214 201 187 187 211 216 182 170 198 39 339 277 279 93 61 19 86 89 89 85 33 208 145 139 143 141 139 136 134
173 116 136 159 168 168 164 173 186 198 217 190 120 93 121 140 147 150 164 173 143 103 163 139 127 161 171 173 165 161 165 172 184 193 194 187 188 180 327 159 148 155 163 143 132 156 61 109 121 109 97 111 125 128 131 173 246 253 244 224 213 200 195 215 224 171 161 167 168 212 244 245 124 81 356 87 63 22 208 213 220 188 144 149 152 144 138 131
148 101 108 157 171 179 185 183 186 196 196 173 151 133 120 133 148 158 178 182 170 164 163 144 141 167 154 153 162 169 172 178 200 201 195 177 168 39 13 168 157 165 176 169 166 176 182 155 141 137 147 169 188 190 191 190 209 231 221 202 208 190 118 106 173 197 201 194 190 213 245 243 144 121 217 174 153 225 231 192 189 196 165 157 155 151 146 140
134 110 57 146 174 193 216 207 194 193 184 177 173 163 151 131 139 168 177 165 143 161 157 136 135 127 117 136 152 171 177 180 193 185 162 162 169 44 27 197 189 181 169 29 147 165 178 180 163 166 173 180 196 205 203 190 184 214 215 190 197 190 166 172 197 217 224 197 180 212 243 237 126 161 203 174 169 206 198 163 183 213 189 167 161 159 153 148
145 133 117 126 168 217 238 268 245 200 183 179 177 174 170 159 129 64 169 151 131 136 116 99 134 125 131 157 156 172 185 172 64 167 177 164 140 57 32 38 136 152 34 12 158 155 156 200 188 195 202 200 209 211 194 167 151 189 203 194 193 196 192 189 195 215 217 187 184 218 232 232 194 187 202 189 178 194 182 169 190 206 194 177 167 161 151 147
127 147 155 148 155 205 219 230 230 208 183 179 176 178 179 167 145 153 206 197 186 170 91 81 156 161 165 171 170 181 187 172 110 170 172 147 94 51 51 74 83 57 24 341 204 153 138 206 201 209 220 211 198 197 175 163 171 199 204 194 185 190 190 191 212 221 203 172 227 228 217 230 225 186 196 203 179 182 188 186 193 194 191 180 158 153 151 154
24 114 162 148 152 192 202 207 208 204 187 181 178 176 180 173 159 168 183 156 174 185 170 139 188 191 177 171 168 172 178 175 174 174 151 133 138 114 79 73 111 91 62 138 219 139 178 208 202 206 221 208 98 99 170 178 194 208 200 187 179 181 186 193 214 225 200 194 239 231 197 217 228 202 201 202 179 185 185 171 170 171 170 161 154 163 168 171
52 73 30 346 355 193 193 188 192 200 194 187 186 183 184 182 176 172 156 137 169 201 207 190 193 196 184 174 171 166 171 176 183 184 159 142 151 140 127 147 139 95 105 153 187 254 211 211 195 198 214 201 103 96 188 187 194 199 191 185 178 179 190 198 213 224 216 217 238 239 208 220 227 211 208 192 144 137 114 116 144 161 165 170 183 189 183 182
60 55 116 77 37 177 186 179 184 197 197 193 195 191 191 191 184 167 147 160 175 188 205 204 189 184 182 182 186 187 186 187 187 178 157 146 160 181 182 173 141 119 123 156 155 329 244 207 153 172 207 195 106 91 167 180 187 188 182 179 175 179 196 208 219 224 222 230 241 247 252 252 231 203 202 149 101 101 111 150 175 177 178 184 195 199 189 191
51 1 10 155 129 161 184 183 186 195 194 195 198 190 193 198 188 163 145 183 183 175 193 198 172 158 167 188 202 208 192 190 194 175 164 163 175 185 188 170 147 147 159 172 156 138 205 200 98 147 201 204 109 117 126 85 60 211 199 187 181 184 197 207 218 218 214 225 236 239 247 253 223 183 183 144 121 146 177 189 190 189 190 192 198 200 195 203
94 2 358 60 133 165 190 181 185 196 199 199 198 186 188 197 188 163 146 201 230 187 189 180 150 129 148 196 207 206 144 117 78 146 160 162 143 144 145 164 161 160 164 170 162 149 164 164 129 172 200 212 29 105 130 107 103 236 221 200 191 196 204 205 213 219 214 218 224 224 235 242 177 160 184 191 189 203 208 201 194 189 187 193 201 201 203 212